FW3198 Weather Reports


time (UTC)temp
C
wind
direction
speed
KPH
gust
KPH
rain 1hr
cm
rain 24hr
cm
rain mn
cm
humidity
%
barometer
mb
20260906131608 25 0 0.0 0.0 0.00 0.00 0.00 89 1013.6
20260906130059 23 0 0.0 0.0 0.00 0.00 0.00 93 1013.4
20260906124550 22 0 0.0 0.0 0.00 0.00 0.00 94 1013.3
20260906123055 21 0 0.0 0.0 0.00 0.00 0.00 97 1013.4
20260906121556 21 0 0.0 0.0 0.00 0.00 0.00 97 1013.2
20260906120056 21 0 0.0 0.0 0.00 0.00 0.00 97 1013.2
20260906114553 20 0 0.0 0.0 0.00 0.00 0.00 97 1013.0
20260906113050 20 0 0.0 0.0 0.00 0.00 0.00 97 1013.0
20260906111556 20 0 0.0 0.0 0.00 0.00 0.00 97 1013.0
20260906110050 20 0 0.0 0.0 0.00 0.00 0.00 97 1012.8
20260906104557 20 0 0.0 1.6 0.00 0.00 0.00 96 1012.7
20260906103052 20 0 0.0 0.0 0.00 0.00 0.00 96 1012.5
20260906101549 20 0 0.0 0.0 0.00 0.00 0.00 96 1012.4
20260906100059 20 0 0.0 0.0 0.00 0.00 0.00 96 1012.5
20260906094604 20 0 0.0 0.0 0.00 0.00 0.00 96 1012.6
20260906093053 21 0 0.0 0.0 0.00 0.00 0.00 96 1012.6
20260906091551 21 0 0.0 0.0 0.00 0.00 0.00 96 1012.4
20260906090054 21 0 0.0 0.0 0.00 0.00 0.00 95 1012.4
20260906084559 21 0 0.0 0.0 0.00 0.00 0.00 95 1012.4
20260906083052 21 0 0.0 0.0 0.00 0.00 0.00 95 1012.4
20260906081550 21 0 0.0 0.0 0.00 0.00 0.00 95 1012.3
20260906074559 21 0 0.0 0.0 0.00 0.00 0.00 95 1012.4
20260906073054 21 0 0.0 0.0 0.00 0.00 0.00 95 1012.4
20260906071552 21 0 0.0 0.0 0.00 0.00 0.00 95 1012.2
20260906070059 21 0 0.0 0.0 0.00 0.00 0.00 95 1012.4
20260906064552 21 0 0.0 0.0 0.00 0.00 0.00 95 1012.7
20260906063051 21 0 0.0 0.0 0.00 0.00 0.00 94 1012.7
20260906061550 21 0 0.0 0.0 0.00 0.00 0.00 94 1012.7
20260906060134 21 0 0.0 0.0 0.00 0.00 0.00 93 1012.8
20260906054606 21 0 0.0 0.0 0.00 0.00 0.00 93 1012.9
20260906053056 21 0 0.0 0.0 0.00 0.00 0.00 92 1013.1
20260906051557 21 0 0.0 0.0 0.00 0.00 0.00 92 1013.3
20260906050105 22 0 0.0 1.6 0.00 0.00 0.00 91 1013.5
20260906044559 22 0 0.0 1.6 0.00 0.00 0.00 91 1013.6
20260906043054 21 0 0.0 1.6 0.00 0.00 0.00 91 1013.5
20260906041550 22 264 0.0 1.6 0.00 0.00 0.00 91 1013.1
20260906040051 22 0 0.0 0.0 0.00 0.00 0.00 92 1012.6
20260906034604 22 0 0.0 0.0 0.00 0.00 0.00 92 1012.7
20260906033057 21 0 0.0 0.0 0.00 0.00 0.00 92 1012.6
20260906031551 21 0 0.0 0.0 0.00 0.00 0.00 92 1012.7
20260906024558 21 0 0.0 0.0 0.00 0.00 0.00 93 1013.1
20260906023050 21 0 0.0 0.0 0.00 0.00 0.00 93 1013.1
20260906021557 21 0 0.0 1.6 0.00 0.00 0.00 92 1013.3
20260906020057 21 0 0.0 0.0 0.00 0.00 0.00 92 1013.7
20260906014553 22 0 0.0 3.2 0.00 0.00 0.00 90 1013.6
20260906013050 23 0 0.0 3.2 0.00 0.00 0.00 85 1013.5
20260906011549 25 276 6.4 16.1 0.00 0.00 0.00 74 1013.3
20260906010137 25 304 4.8 19.3 0.00 0.00 0.00 77 1013.1
20260906004609 26 284 3.2 11.3 0.00 0.00 0.00 77 1013.6
20260906003103 27 102 3.2 20.9 0.00 0.00 0.00 77 1013.2
20260906001601 28 100 4.8 9.7 0.00 0.00 0.00 77 1013.5
20260906000058 28 0 0.0 0.0 0.00 0.00 0.00 81 1012.4
20260905234554 28 0 0.0 0.0 0.00 0.00 0.00 80 1012.1
20260905233051 28 0 0.0 0.0 0.00 0.00 0.00 78 1011.4
20260905231550 29 150 0.0 3.2 0.00 0.00 0.00 77 1011.8
20260905224552 30 136 0.0 1.6 0.00 0.00 0.00 75 1012.1
20260905223055 30 0 0.0 1.6 0.00 0.00 0.00 75 1011.7
20260905221552 30 0 0.0 1.6 0.00 0.00 0.00 75 1011.6
20260905220058 31 0 0.0 1.6 0.00 0.00 0.00 73 1011.7
20260905214553 31 113 0.0 3.2 0.00 0.00 0.00 72 1011.6
20260905213101 31 11 0.0 1.6 0.00 0.00 0.00 70 1011.5
20260905211553 32 98 1.6 4.8 0.00 0.00 0.00 68 1011.6
20260905204547 33 0 0.0 4.8 0.00 0.00 0.00 66 1011.6
20260905203052 34 19 0.0 3.2 0.00 0.00 0.00 65 1011.7
20260905201552 34 108 0.0 9.7 0.00 0.00 0.00 63 1012.0
20260905200112 34 160 0.0 6.4 0.00 0.00 0.00 64 1012.2
20260905194556 33 98 1.6 8.0 0.00 0.00 0.00 62 1012.3
20260905193050 32 143 0.0 3.2 0.00 0.00 0.00 65 1012.8
20260905191549 32 0 0.0 3.2 0.00 0.00 0.00 64 1013.2
20260905190058 33 309 0.0 0.0 0.00 0.00 0.00 63 1013.0
20260905184606 33 0 0.0 1.6 0.00 0.00 0.00 61 1012.7
20260905183052 34 132 0.0 1.6 0.00 0.00 0.00 57 1012.9
20260905181555 34 0 0.0 0.0 0.00 0.00 0.00 54 1013.2
20260905174553 35 285 0.0 9.7 0.00 0.00 0.00 50 1013.6
20260905173054 34 0 0.0 3.2 0.00 0.00 0.00 58 1013.6
20260905171550 33 0 1.6 6.4 0.00 0.00 0.00 58 1013.8
20260905170047 33 289 0.0 4.8 0.00 0.00 0.00 58 1014.2
20260905164554 33 0 1.6 6.4 0.00 0.00 0.00 60 1014.4
20260905163050 33 285 0.0 9.7 0.00 0.00 0.00 60 1014.5
20260905161558 33 0 1.6 4.8 0.00 0.00 0.00 59 1014.7
20260905160055 33 105 0.0 4.8 0.00 0.00 0.00 59 1014.7
20260905154606 32 296 1.6 6.4 0.00 0.00 0.00 64 1014.9
20260905153048 32 289 0.0 3.2 0.00 0.00 0.00 65 1014.9
20260905151626 32 0 0.0 4.8 0.00 0.00 0.00 66 1015.1
20260905150053 30 0 1.6 3.2 0.00 0.00 0.00 72 1015.2
20260905144550 30 0 0.0 3.2 0.00 0.00 0.00 74 1015.2
20260905143100 31 0 0.0 1.6 0.00 0.00 0.00 73 1015.2
20260905141559 29 0 0.0 1.6 0.00 0.00 0.00 77 1015.3
20260905140054 28 0 0.0 1.6 0.00 0.00 0.00 81 1015.5
20260905134550 28 0 0.0 0.0 0.00 0.00 0.00 83 1015.5
20260905133059 27 0 0.0 0.0 0.00 0.00 0.00 86 1015.5